[[{"header":{"parameterUnit":"m.s-1","parameterCategory":1,"la1":30.2991,"la2":30.254,"lo1":-89.0895,"lo2":-89.0444,"dy":0.0017,"dx":0.0017,"nx":28,"ny":28,"refTime":"2024-11-22T03:00:00:Z","depth":0,"parameterNumber":2,"parameterNumberName":"U-component_of_WINDS"},"data":[0,0,0,0,0,0,0,0,0,0,0,0,0,0,0,0,0,0,0,0,0,0,0,0,0,0,0,0,0,0,0,0,0,0,0,0,0,0,0,0,0,0,0,0,0,0,0,0,0,0,0,0,0,0,0,0,0,0,-0.4833,-0.4834,0,-0.4875,-0.4876,-0.4876,-0.4831,-0.4829,-0.4827,-0.4826,-0.4872,-0.4875,-0.4878,0,0,0,0,0,0,0,0,0,0,0,0,0,-0.4716,-0.4718,-0.4833,-0.4834,-0.4834,-0.4875,-0.4876,-0.4876,-0.4831,-0.4829,-0.4827,-0.4825,-0.4871,-0.4874,-0.4878,0,0,0,0,0,0,0,0,0,0,0,0,0,-0.4763,-0.4719,-0.4833,-0.4817,-0.4816,-0.4875,-0.4876,-0.4876,-0.4832,-0.4829,-0.4826,-0.4824,-0.487,-0.4874,-0.4878,-0.4957,0,0,-0.4891,-0.4893,0,0,0,0,0,0,0,0,-0.4761,-0.4768,-0.4819,-0.4818,-0.4817,-0.4845,-0.4851,-0.4904,-0.4832,-0.4826,-0.4826,-0.4823,-0.4865,-0.487,-0.4884,-0.4959,-0.4961,-0.4892,-0.4894,-0.4896,-0.4898,0,0,0,0,0,0,0,-0.4758,-0.4766,-0.485,-0.4819,-0.4818,-0.4808,-0.4812,-0.4861,-0.486,-0.4826,-0.4823,-0.4828,-0.4864,-0.488,-0.4884,-0.4962,-0.4892,-0.4896,-0.4898,-0.49,-0.5102,-0.5105,0,0,0,0,0,0,-0.4756,-0.4763,-0.4849,-0.4851,-0.4782,-0.4812,-0.4816,-0.4839,-0.4859,-0.486,-0.483,-0.4826,-0.4874,-0.4879,-0.4886,-0.4978,-0.4896,-0.49,-0.4903,-0.5099,-0.5103,-0.5106,0,0,0,0,0,0,-0.4753,-0.4764,-0.4847,-0.4806,-0.4816,-0.4817,-0.4842,-0.4841,-0.4856,-0.4862,-0.4862,-0.4846,-0.4872,-0.488,-0.4939,-0.4979,-0.4902,-0.4906,-0.5096,-0.51,-0.5104,-0.5165,0,0,0,0,0,0,-0.475,-0.4763,-0.4793,-0.4807,-0.4818,-0.49,-0.4845,-0.4844,-0.4863,-0.4858,-0.4877,-0.4878,-0.487,-0.4933,-0.4943,-0.4984,-0.4909,-0.5093,-0.5098,-0.5103,-0.5159,-0.5171,-0.518,0,0,0,0,0,-0.4746,-0.481,-0.4795,-0.4805,-0.4856,-0.4902,-0.4908,-0.4898,-0.4867,-0.4897,-0.49,-0.4877,-0.4973,-0.4939,-0.4951,-0.4993,-0.509,-0.5097,-0.5103,-0.5155,-0.5169,-0.518,0,0,0,0,0,0,-0.4802,-0.4811,-0.4795,-0.4865,-0.4883,-0.4894,-0.4932,-0.4913,-0.4941,-0.4935,-0.4921,-0.4926,-0.4988,-0.4996,-0.4959,-0.5069,-0.5026,-0.5035,-0.5062,-0.5075,-0.5086,-0.5083,-0.4913,0,0,0,0,0,-0.4822,-0.4858,-0.4865,-0.4926,-0.4935,-0.4932,-0.4952,-0.4941,-0.496,-0.4968,-0.4976,-0.4995,-0.5029,-0.5053,-0.5085,-0.516,-0.5163,-0.5194,-0.5205,-0.5213,-0.5222,-0.526,-0.5274,-0.5127,-0.5127,-0.5126,0,0,-0.4865,-0.4874,-0.4899,-0.4937,-0.495,-0.4988,-0.4939,-0.4982,-0.501,-0.4975,-0.5031,-0.5037,-0.5058,-0.5125,-0.5155,-0.5133,-0.5263,-0.5221,-0.5228,-0.5232,-0.5268,-0.5282,-0.5295,-0.5131,-0.513,-0.5129,0,0,-0.4962,-0.4973,-0.5024,-0.5037,-0.5056,-0.5053,-0.5065,-0.5079,-0.5081,-0.5137,-0.5111,-0.5144,-0.5204,-0.5219,-0.5235,-0.5334,-0.5314,-0.5345,-0.5401,-0.5439,-0.545,-0.546,-0.5496,-0.5509,-0.5353,-0.5353,-0.5353,0,-0.5014,-0.5069,-0.5054,-0.5097,-0.5115,-0.5082,-0.5134,-0.5148,-0.5177,-0.519,-0.5165,-0.5237,-0.5249,-0.5319,-0.5343,-0.5356,-0.537,-0.5344,-0.5449,-0.546,-0.5469,-0.5502,-0.5516,-0.5357,-0.5356,-0.5356,-0.5355,0,-0.5131,-0.517,-0.5209,-0.5235,-0.5257,-0.5305,-0.5297,-0.5321,-0.5307,-0.5307,-0.5363,-0.5375,-0.5409,-0.5424,-0.5413,-0.5491,-0.5477,-0.5451,-0.5408,-0.5487,-0.5518,-0.5531,-0.5362,-0.5361,-0.5359,-0.5359,0,0,-0.5268,-0.5283,-0.5297,-0.5308,-0.5325,-0.5355,-0.5401,-0.5431,-0.5452,-0.5472,-0.551,-0.5559,-0.5534,-0.5552,-0.5542,-0.5575,-0.5652,-0.5545,-0.5545,-0.5564,-0.5739,-0.5759,-0.5774,-0.5638,-0.564,-0.5642,-0.5737,0,-0.5365,-0.5443,-0.5429,-0.5505,-0.554,-0.5509,-0.5548,-0.5563,-0.5563,-0.5593,-0.5593,-0.5628,-0.5593,-0.5603,-0.5634,-0.5636,-0.5687,-0.5629,-0.5673,-0.5675,-0.567,-0.579,-0.5812,-0.5902,-0.5749,-0.5751,-0.5753,0,-0.549,-0.5513,-0.5592,-0.5601,-0.5615,-0.5651,-0.5677,-0.5706,-0.5721,-0.5719,-0.5737,-0.572,-0.5765,-0.5719,-0.5781,-0.5742,-0.5758,-0.5762,-0.5765,-0.577,-0.572,-0.5799,-0.593,-0.5944,-0.5772,-0.577,-0.5769,0,-0.5582,-0.5632,-0.5686,-0.5696,-0.5708,-0.5734,-0.574,-0.5753,-0.5771,-0.5794,-0.5806,-0.5834,-0.585,-0.5872,-0.5862,-0.583,-0.5925,-0.588,-0.5925,-0.5925,-0.5948,-0.5947,-0.6084,-0.5958,-0.5958,-0.5957,-0.5957,0,-0.5693,-0.5743,-0.5727,-0.576,-0.5814,-0.5797,-0.5851,-0.5854,-0.5865,-0.5898,-0.5872,-0.5903,-0.5888,-0.5919,-0.5911,-0.5963,-0.597,-0.597,-0.5967,-0.5973,-0.5973,-0.5984,-0.5978,-0.5961,-0.596,-0.5959,-0.5959,0,-0.5806,-0.5797,-0.5853,-0.5858,-0.5861,-0.5901,-0.5906,-0.5936,-0.5933,-0.5975,-0.5984,-0.5979,-0.6013,-0.6005,-0.6043,-0.6038,-0.6103,-0.6092,-0.6097,-0.6095,-0.6141,-0.6137,-0.6291,-0.631,-0.6171,-0.6173,-0.6174,0,-0.5878,-0.5915,-0.5923,-0.5943,-0.5951,-0.5983,-0.6,-0.5984,-0.6004,-0.6023,-0.6051,-0.6082,-0.6107,-0.6163,-0.6163,-0.6191,-0.6182,-0.6234,-0.6186,-0.6189,-0.6182,-0.618,-0.6184,-0.6244,-0.6245,-0.6247,-0.6248,0,-0.6006,-0.5999,-0.6026,-0.605,-0.6072,-0.6091,-0.6107,-0.6125,-0.611,-0.6133,-0.6167,-0.6185,-0.6222,-0.6254,-0.6279,-0.6286,-0.6265,-0.6262,-0.6274,-0.628,-0.6282,-0.6281,-0.6124,-0.6259,-0.6258,-0.6257,-0.6257,-0.6256,-0.6101,-0.6132,-0.6142,-0.6172,-0.6182,-0.6197,-0.6225,-0.6224,-0.6252,-0.628,-0.6268,-0.6307,-0.6319,-0.635,-0.636,-0.639,-0.637,-0.6388,-0.6392,-0.6397,-0.6402,-0.6276,-0.6394,-0.6394,-0.6394,-0.6393,-0.6393,0,-0.6228,-0.6232,-0.626,-0.6282,-0.6305,-0.6281,-0.6297,-0.6318,-0.6352,-0.6365,-0.6388,-0.6426,-0.6455,-0.6456,-0.6484,-0.6507,-0.6498,-0.6515,-0.6514,-0.6515,-0.6419,-0.6405,-0.6522,-0.6522,-0.6522,-0.6522,-0.6522,-0.6522,-0.6297,-0.6347,-0.6341,-0.6396,-0.64,-0.6436,-0.6447,-0.6461,-0.647,-0.6513,-0.6537,-0.6537,-0.6544,-0.6571,-0.6597,-0.6597,-0.6608,-0.6629,-0.6625,-0.6535,-0.6522,-0.651,-0.6498,-0.6631,-0.6632,-0.6719,-0.672,-0.672]},{"header":{"parameterUnit":"m.s-1","parameterCategory":1,"la1":30.2991,"la2":30.254,"lo1":-89.0895,"lo2":-89.0444,"dy":0.0017,"dx":0.0017,"nx":28,"ny":28,"refTime":"2024-11-22T03:00:00:Z","depth":0,"parameterNumber":3,"parameterNumberName":"V-component_of_WINDS"},"data":[0,0,0,0,0,0,0,0,0,0,0,0,0,0,0,0,0,0,0,0,0,0,0,0,0,0,0,0,0,0,0,0,0,0,0,0,0,0,0,0,0,0,0,0,0,0,0,0,0,0,0,0,0,0,0,0,0,0,-5.0621,-5.0622,0,-5.0743,-5.0745,-5.0746,-5.0666,-5.0662,-5.0659,-5.0655,-5.0777,-5.0783,-5.079,0,0,0,0,0,0,0,0,0,0,0,0,0,-5.0312,-5.0318,-5.0621,-5.0622,-5.0624,-5.0743,-5.0745,-5.0746,-5.0667,-5.0662,-5.0658,-5.0654,-5.0774,-5.0782,-5.079,0,0,0,0,0,0,0,0,0,0,0,0,0,-5.0441,-5.032,-5.0621,-5.0599,-5.0598,-5.0743,-5.0745,-5.0747,-5.0668,-5.0662,-5.0657,-5.0651,-5.0772,-5.0782,-5.0791,-5.0964,0,0,-5.0822,-5.0826,0,0,0,0,0,0,0,0,-5.0434,-5.0453,-5.06,-5.06,-5.06,-5.0684,-5.068,-5.0819,-5.0669,-5.0641,-5.0655,-5.0649,-5.075,-5.0761,-5.0796,-5.0969,-5.0974,-5.0823,-5.0829,-5.0833,-5.0836,0,0,0,0,0,0,0,-5.0425,-5.0447,-5.0669,-5.0602,-5.0602,-5.0581,-5.0593,-5.0706,-5.0725,-5.0643,-5.0638,-5.0653,-5.0749,-5.0787,-5.0799,-5.0976,-5.0823,-5.0831,-5.0838,-5.0841,-5.1293,-5.1298,0,0,0,0,0,0,-5.0419,-5.044,-5.0665,-5.0673,-5.0502,-5.0591,-5.0604,-5.0662,-5.0723,-5.0728,-5.0658,-5.0649,-5.0773,-5.0787,-5.0803,-5.1006,-5.0833,-5.0842,-5.0848,-5.1287,-5.1294,-5.13,0,0,0,0,0,0,-5.0412,-5.044,-5.066,-5.0555,-5.0581,-5.0602,-5.0668,-5.0668,-5.0706,-5.0735,-5.0737,-5.0694,-5.0769,-5.0789,-5.0924,-5.1009,-5.0847,-5.0856,-5.128,-5.1289,-5.1297,-5.1416,0,0,0,0,0,0,-5.0404,-5.0438,-5.0505,-5.0557,-5.0587,-5.0782,-5.0673,-5.0674,-5.0724,-5.0714,-5.0769,-5.0773,-5.0766,-5.0909,-5.0934,-5.102,-5.0864,-5.1272,-5.1284,-5.1294,-5.1404,-5.1428,-5.1448,0,0,0,0,0,-5.0393,-5.0534,-5.0509,-5.0537,-5.0672,-5.0787,-5.0804,-5.0794,-5.0731,-5.0798,-5.0816,-5.0771,-5.0996,-5.0924,-5.095,-5.1041,-5.1266,-5.128,-5.1293,-5.1395,-5.1423,-5.1447,0,0,0,0,0,0,-5.0491,-5.054,-5.0513,-5.0675,-5.0728,-5.0773,-5.0857,-5.0825,-5.0895,-5.0883,-5.0866,-5.0879,-5.102,-5.1044,-5.0963,-5.1209,-5.1121,-5.114,-5.1189,-5.1216,-5.1237,-5.1228,-5.0872,0,0,0,0,0,-5.0531,-5.0622,-5.0659,-5.0798,-5.0826,-5.0837,-5.0887,-5.0874,-5.0927,-5.0949,-5.0976,-5.1028,-5.111,-5.1164,-5.1241,-5.1407,-5.1416,-5.1482,-5.1504,-5.1522,-5.1539,-5.1625,-5.1654,-5.1345,-5.1344,-5.1344,0,0,-5.0615,-5.0653,-5.0711,-5.0819,-5.0858,-5.0949,-5.0856,-5.0958,-5.1025,-5.0964,-5.1093,-5.1115,-5.1171,-5.1322,-5.1389,-5.1346,-5.1626,-5.1539,-5.1553,-5.156,-5.1642,-5.1671,-5.1697,-5.1354,-5.1352,-5.1351,0,0,-5.0815,-5.0854,-5.0973,-5.1014,-5.1074,-5.1081,-5.1109,-5.1159,-5.1172,-5.1301,-5.1256,-5.1335,-5.1477,-5.1518,-5.1558,-5.177,-5.1731,-5.1796,-5.1909,-5.1993,-5.2018,-5.2039,-5.2113,-5.214,-5.1812,-5.1813,-5.1813,0,-5.0912,-5.1051,-5.1038,-5.1143,-5.119,-5.1139,-5.1257,-5.1297,-5.1379,-5.1412,-5.1362,-5.1538,-5.1572,-5.173,-5.1782,-5.1816,-5.1846,-5.1789,-5.2016,-5.2037,-5.2057,-5.2127,-5.2155,-5.182,-5.1819,-5.1818,-5.1818,0,-5.1165,-5.1262,-5.135,-5.1431,-5.1488,-5.16,-5.1602,-5.166,-5.1642,-5.1653,-5.1784,-5.1823,-5.1906,-5.1942,-5.1926,-5.2098,-5.2068,-5.2018,-5.1929,-5.2094,-5.2159,-5.2186,-5.1831,-5.1828,-5.1826,-5.1824,0,0,-5.1432,-5.1503,-5.1535,-5.157,-5.1632,-5.1705,-5.1812,-5.1894,-5.1944,-5.2002,-5.209,-5.221,-5.2163,-5.2207,-5.2195,-5.2269,-5.2432,-5.2209,-5.221,-5.2247,-5.2621,-5.2658,-5.2689,-5.2406,-5.2412,-5.2416,-5.2615,0,-5.1634,-5.1824,-5.1814,-5.199,-5.2078,-5.2029,-5.2122,-5.2168,-5.218,-5.2254,-5.2266,-5.2351,-5.2284,-5.231,-5.2382,-5.2397,-5.2507,-5.2383,-5.2486,-5.249,-5.2473,-5.2724,-5.2764,-5.2951,-5.2641,-5.2645,-5.2648,0,-5.1896,-5.1963,-5.2148,-5.2194,-5.223,-5.2315,-5.2387,-5.246,-5.251,-5.2513,-5.2562,-5.2537,-5.2642,-5.2551,-5.2695,-5.2611,-5.2652,-5.2666,-5.2672,-5.2681,-5.2579,-5.2738,-5.301,-5.3038,-5.2689,-5.2686,-5.2683,0,-5.207,-5.2206,-5.2334,-5.2365,-5.2423,-5.2482,-5.2509,-5.2554,-5.2603,-5.2665,-5.2696,-5.277,-5.2811,-5.2867,-5.2861,-5.2796,-5.3007,-5.2915,-5.301,-5.3011,-5.3057,-5.3054,-5.3338,-5.3086,-5.3085,-5.3085,-5.3084,0,-5.2296,-5.2411,-5.2412,-5.2491,-5.2617,-5.2603,-5.2728,-5.2747,-5.2787,-5.2867,-5.2828,-5.2903,-5.2891,-5.2966,-5.2961,-5.3079,-5.3098,-5.3102,-5.3099,-5.3105,-5.3105,-5.3131,-5.3118,-5.3092,-5.309,-5.3089,-5.3088,0,-5.2512,-5.2517,-5.2653,-5.2696,-5.2709,-5.28,-5.2835,-5.2908,-5.2916,-5.3017,-5.304,-5.3052,-5.3137,-5.3137,-5.3234,-5.323,-5.3375,-5.3358,-5.3359,-5.3355,-5.3449,-5.344,-5.376,-5.3801,-5.3523,-5.3526,-5.3528,0,-5.2656,-5.2743,-5.2795,-5.2846,-5.2876,-5.2959,-5.3008,-5.2997,-5.305,-5.3112,-5.3177,-5.3259,-5.3324,-5.3462,-5.3478,-5.3551,-5.3534,-5.3642,-5.3545,-5.3547,-5.3534,-5.3529,-5.3536,-5.366,-5.3663,-5.3666,-5.3668,0,-5.291,-5.2908,-5.2982,-5.3056,-5.3116,-5.3174,-5.3227,-5.327,-5.3264,-5.3325,-5.3412,-5.3462,-5.3561,-5.3642,-5.3712,-5.3736,-5.3701,-5.3698,-5.3724,-5.373,-5.3726,-5.3728,-5.3409,-5.3691,-5.3689,-5.3687,-5.3686,-5.3685,-5.3093,-5.3168,-5.3215,-5.3297,-5.3336,-5.3386,-5.3456,-5.3472,-5.3545,-5.3625,-5.3613,-5.371,-5.3754,-5.3845,-5.3876,-5.3949,-5.3911,-5.3949,-5.3958,-5.3967,-5.3977,-5.3715,-5.3962,-5.3961,-5.3961,-5.396,-5.396,0,-5.3344,-5.3372,-5.3448,-5.3523,-5.3587,-5.3549,-5.3605,-5.366,-5.3746,-5.3791,-5.3856,-5.3954,-5.4031,-5.4053,-5.4127,-5.4182,-5.4167,-5.4201,-5.4196,-5.4202,-5.4008,-5.3977,-5.4212,-5.4211,-5.4211,-5.4211,-5.4211,-5.4211,-5.3482,-5.3605,-5.3608,-5.3748,-5.3774,-5.3869,-5.3904,-5.3948,-5.3984,-5.4096,-5.4161,-5.4175,-5.4209,-5.4285,-5.4353,-5.4357,-5.4386,-5.4426,-5.4424,-5.4241,-5.4216,-5.4192,-5.4163,-5.4433,-5.4433,-5.4612,-5.4613,-5.4615]}]]